sat.trackr.live / text

‹ back to catalog

YAOGAN-25 01B

NORAD 40339 · 2014-080B

PAYLOAD ACTIVE UNKNOWN

§ Identity

Operator
Country
PRC
Launch date
2014-12-10
Launch site
JSC
Launch vehicle
Mass (kg)
RCS (m²)
2.39

External: N2YO · Heavens-Above · Gunter

§ Orbital elements

Epoch: 2026-09-15T22:42:26.275680Z

Period
107.03 min
Inclination
63.3859°
Eccentricity
0.0374917
Mean motion
13.45439992 rev/d
Perigee alt
809.1 km
Apogee alt
1,369.0 km
Semi-major
7,467.2 km
B*
1.9977e-5
RAAN
77.0410°
Arg perigee
9.4193°
Mean anomaly
351.3613°
Rev number
57,784

§ Raw data

YAOGAN-25 01B1 40339U 14080B   26258.94613745 -.00000073  00000+0  19977-4 0  99912 40339  63.3859  77.0410 0374917   9.4193 351.3613 13.45439992577843

JSON: /api/v1/satellites/40339 · /tle

For live sub-satellite position, see the globe view (requires WebGL).

§ Visibility from observer

Set your observer location to see the next 7 days of passes ≥ 10°. The values pass through the URL so the page stays shareable.

No JS? Fill the form by hand. The geolocation button needs JavaScript.